[[{"header":{"parameterUnit":"m.s-1","parameterCategory":2,"la1":30.2991,"la2":30.254,"lo1":-89.0895,"lo2":-89.0444,"dy":0.0017,"dx":0.0017,"nx":28,"ny":28,"refTime":"2025-01-07T09:00:00:Z","depth":"0","parameterNumber":2,"parameterNumberName":"U-component_of_CURRENTS"},"data":[0,0,0,0,0,0,0,0,0,0,0,0,0,0,0,0,0,0,0,0,0,0,0,0,0,0,0,0,0,0,0,0,0,0,0,0,0,0,0,0,0,0,0,0,0,0,0,0,0,0,0,0,0,0,0,0,0,0,0.2282,0.2283,0,0.2332,0.2333,0.2333,0.2359,0.2359,0.2359,0.2359,0.2385,0.2386,0.2387,0,0,0,0,0,0,0,0,0,0,0,0,0,0.2245,0.2246,0.2282,0.2283,0.2284,0.2332,0.2333,0.2334,0.2359,0.2359,0.2359,0.2359,0.2385,0.2386,0.2387,0,0,0,0,0,0,0,0,0,0,0,0,0,0.2275,0.2246,0.2282,0.2302,0.2305,0.2332,0.2333,0.2334,0.2359,0.2359,0.2359,0.2359,0.2385,0.2386,0.2387,0.2391,0,0,0.239,0.239,0,0,0,0,0,0,0,0,0.2273,0.2276,0.2299,0.2301,0.2304,0.234,0.233,0.2352,0.2359,0.2338,0.2359,0.2359,0.2368,0.237,0.238,0.2392,0.2393,0.239,0.239,0.2391,0.2391,0,0,0,0,0,0,0,0.2271,0.2274,0.2302,0.2299,0.2302,0.2322,0.2325,0.2334,0.2351,0.234,0.2342,0.2348,0.2369,0.2379,0.238,0.2394,0.239,0.2391,0.2391,0.2392,0.2438,0.2439,0,0,0,0,0,0,0.2263,0.2272,0.23,0.2303,0.2289,0.2322,0.2326,0.2328,0.2352,0.2356,0.2348,0.2349,0.2377,0.2379,0.2381,0.242,0.2391,0.2392,0.2392,0.2437,0.2438,0.2439,0,0,0,0,0,0,0.2262,0.2265,0.2298,0.2289,0.2295,0.2322,0.2324,0.2329,0.2342,0.2358,0.2362,0.2356,0.2377,0.238,0.2393,0.242,0.2392,0.2393,0.2437,0.2438,0.2438,0.2477,0,0,0,0,0,0,0.2261,0.2264,0.2262,0.2289,0.2295,0.2318,0.2324,0.233,0.2345,0.2347,0.2366,0.2369,0.2377,0.2392,0.2394,0.2421,0.2394,0.2436,0.2437,0.2438,0.2475,0.2479,0.2483,0,0,0,0,0,0.2259,0.2248,0.2261,0.2265,0.2291,0.2318,0.2323,0.2343,0.2345,0.2354,0.2366,0.2368,0.2402,0.2393,0.2396,0.2423,0.2435,0.2437,0.2438,0.2473,0.2478,0.2483,0,0,0,0,0,0,0.2219,0.2251,0.2265,0.2262,0.2293,0.2323,0.2329,0.2343,0.236,0.2361,0.2372,0.2376,0.2402,0.2401,0.2391,0.2439,0.2421,0.2423,0.2446,0.2451,0.2455,0.2424,0.2395,0,0,0,0,0,0.2212,0.2218,0.2255,0.2252,0.227,0.2301,0.2313,0.2332,0.2351,0.2359,0.2372,0.2387,0.241,0.2419,0.2434,0.2454,0.2448,0.2474,0.2478,0.2482,0.2458,0.2478,0.2481,0.2444,0.2444,0.2444,0,0,0.2192,0.2212,0.2213,0.2245,0.227,0.2292,0.2309,0.2331,0.2347,0.2358,0.2376,0.24,0.2417,0.2448,0.2459,0.245,0.2494,0.2483,0.2486,0.246,0.2479,0.2483,0.2486,0.2445,0.2444,0.2444,0,0,0.2166,0.218,0.2187,0.2214,0.2256,0.2281,0.2288,0.2328,0.2345,0.2368,0.2389,0.2419,0.2442,0.247,0.2484,0.2513,0.2514,0.2528,0.2524,0.2545,0.2548,0.2551,0.2568,0.2571,0.253,0.253,0.253,0,0.2147,0.2162,0.2191,0.2211,0.2235,0.2275,0.2297,0.2318,0.2354,0.2373,0.2373,0.2431,0.245,0.2496,0.2509,0.2522,0.2529,0.2509,0.255,0.2552,0.2554,0.2571,0.2574,0.2532,0.2532,0.2532,0.2531,0,0.2139,0.2153,0.2159,0.2202,0.2227,0.2252,0.2294,0.232,0.2345,0.2371,0.2417,0.2447,0.248,0.2506,0.2513,0.2551,0.2551,0.2555,0.2538,0.256,0.2577,0.258,0.2535,0.2534,0.2534,0.2533,0,0,0.2102,0.2149,0.2152,0.2177,0.2232,0.2252,0.2284,0.2335,0.236,0.2392,0.2427,0.2472,0.2492,0.2507,0.254,0.2555,0.259,0.2556,0.2557,0.2571,0.2634,0.2652,0.2657,0.2605,0.2606,0.2606,0.2648,0,0.21,0.2129,0.2156,0.2187,0.2215,0.2263,0.2287,0.2331,0.2372,0.2411,0.2452,0.2492,0.2494,0.2525,0.2539,0.2585,0.2595,0.2577,0.2609,0.2609,0.2622,0.266,0.2619,0.2654,0.265,0.2651,0.2651,0,0.2095,0.212,0.2148,0.22,0.2217,0.2233,0.2299,0.2327,0.2388,0.2422,0.2463,0.2497,0.2543,0.2533,0.2588,0.2579,0.2592,0.2613,0.2616,0.2612,0.2632,0.2627,0.2659,0.2641,0.2655,0.2655,0.2655,0,0.2069,0.2117,0.214,0.2157,0.2214,0.2235,0.2267,0.2327,0.2371,0.2429,0.2473,0.2515,0.2562,0.2573,0.2625,0.2607,0.2678,0.2666,0.2688,0.269,0.2646,0.2644,0.2657,0.2675,0.2675,0.2674,0.2674,0,0.2063,0.208,0.2126,0.2136,0.2166,0.2211,0.225,0.2293,0.2368,0.2416,0.2471,0.2528,0.2573,0.263,0.2636,0.2687,0.2692,0.2683,0.2702,0.2662,0.2661,0.2634,0.261,0.2676,0.2676,0.2675,0.2675,0,0.2026,0.2057,0.2084,0.2136,0.2151,0.2167,0.2241,0.2274,0.2351,0.2419,0.2444,0.2558,0.263,0.268,0.2729,0.2727,0.2705,0.2765,0.2717,0.2729,0.2712,0.2691,0.2584,0.2503,0.2782,0.2782,0.2783,0,0.2009,0.2019,0.2066,0.2077,0.2097,0.2131,0.2157,0.2245,0.2294,0.2434,0.2469,0.2585,0.2655,0.2761,0.279,0.2821,0.2733,0.2782,0.2729,0.2706,0.2697,0.2581,0.2511,0.2694,0.2694,0.2694,0.2694,0,0.1974,0.1989,0.2005,0.2029,0.2051,0.2081,0.2131,0.2176,0.2279,0.2361,0.2467,0.2543,0.2684,0.2731,0.2808,0.2812,0.2686,0.278,0.2764,0.2632,0.2493,0.2428,0.2674,0.2692,0.2692,0.2693,0.2693,0.2693,0.1938,0.1935,0.1953,0.1974,0.1997,0.2015,0.2018,0.2096,0.217,0.2275,0.2397,0.25,0.2654,0.2776,0.2764,0.2769,0.2689,0.2708,0.2687,0.2573,0.2476,0.2722,0.276,0.276,0.2761,0.2761,0.2761,0,0.1883,0.1885,0.19,0.1908,0.1905,0.1941,0.1986,0.1986,0.2037,0.219,0.2281,0.2475,0.2579,0.2679,0.2773,0.2707,0.2555,0.2638,0.2464,0.2399,0.2647,0.2627,0.2627,0.2627,0.2627,0.2627,0.2627,0.2627,0.185,0.183,0.1838,0.1808,0.1815,0.178,0.1784,0.1816,0.1907,0.2039,0.2167,0.2303,0.2588,0.2812,0.2809,0.2719,0.2483,0.2396,0.2341,0.2554,0.2558,0.2562,0.254,0.2521,0.2521,0.2013,0.2009,0.2007]},{"header":{"parameterUnit":"m.s-1","parameterCategory":2,"la1":30.2991,"la2":30.254,"lo1":-89.0895,"lo2":-89.0444,"dy":0.0017,"dx":0.0017,"nx":28,"ny":28,"refTime":"2025-01-07T09:00:00:Z","depth":"0","parameterNumber":3,"parameterNumberName":"V-component_of_CURRENTS"},"data":[0,0,0,0,0,0,0,0,0,0,0,0,0,0,0,0,0,0,0,0,0,0,0,0,0,0,0,0,0,0,0,0,0,0,0,0,0,0,0,0,0,0,0,0,0,0,0,0,0,0,0,0,0,0,0,0,0,0,-0.0344,-0.0345,0,-0.0501,-0.0504,-0.0506,-0.0623,-0.0624,-0.0624,-0.0625,-0.0746,-0.0749,-0.0752,0,0,0,0,0,0,0,0,0,0,0,0,0,-0.0265,-0.0265,-0.0344,-0.0345,-0.0347,-0.0501,-0.0504,-0.0507,-0.0623,-0.0624,-0.0624,-0.0625,-0.0745,-0.0748,-0.0752,0,0,0,0,0,0,0,0,0,0,0,0,0,-0.0354,-0.0265,-0.0344,-0.0419,-0.0427,-0.0501,-0.0504,-0.0507,-0.0623,-0.0624,-0.0625,-0.0625,-0.0744,-0.0748,-0.0752,-0.0765,0,0,-0.0765,-0.0767,0,0,0,0,0,0,0,0,-0.0349,-0.0358,-0.0407,-0.0414,-0.0423,-0.0538,-0.052,-0.0589,-0.0623,-0.0555,-0.0625,-0.0626,-0.0668,-0.0679,-0.0717,-0.077,-0.0776,-0.0766,-0.0768,-0.077,-0.0771,0,0,0,0,0,0,0,-0.0342,-0.0352,-0.0413,-0.0408,-0.0418,-0.0485,-0.0498,-0.0535,-0.061,-0.0561,-0.0569,-0.0576,-0.0673,-0.0712,-0.072,-0.0777,-0.0765,-0.0769,-0.0772,-0.0773,-0.0834,-0.0833,0,0,0,0,0,0,-0.0303,-0.0345,-0.0408,-0.0417,-0.0379,-0.0485,-0.05,-0.0505,-0.0611,-0.0626,-0.0575,-0.058,-0.0705,-0.0715,-0.0725,-0.0723,-0.077,-0.0774,-0.0776,-0.0835,-0.0834,-0.0833,0,0,0,0,0,0,-0.03,-0.0307,-0.0401,-0.038,-0.0396,-0.0484,-0.049,-0.0508,-0.0539,-0.0621,-0.0637,-0.0586,-0.0706,-0.0719,-0.075,-0.0729,-0.0776,-0.078,-0.0836,-0.0834,-0.0833,-0.0733,0,0,0,0,0,0,-0.0297,-0.0305,-0.0297,-0.0377,-0.0395,-0.0426,-0.049,-0.051,-0.054,-0.0549,-0.0635,-0.0648,-0.0707,-0.0744,-0.0755,-0.0736,-0.0783,-0.0837,-0.0835,-0.0833,-0.0737,-0.0728,-0.072,0,0,0,0,0,-0.0294,-0.0275,-0.0296,-0.0303,-0.0381,-0.0425,-0.0441,-0.0512,-0.0539,-0.0544,-0.0606,-0.0645,-0.074,-0.0746,-0.0759,-0.0741,-0.0838,-0.0836,-0.0834,-0.0741,-0.073,-0.0721,0,0,0,0,0,0,-0.0237,-0.0287,-0.0312,-0.0309,-0.0353,-0.0442,-0.0451,-0.0495,-0.0552,-0.0557,-0.0638,-0.0655,-0.0678,-0.0717,-0.0722,-0.0753,-0.0793,-0.0793,-0.0718,-0.0708,-0.07,-0.0658,-0.0786,0,0,0,0,0,-0.0216,-0.0214,-0.0275,-0.027,-0.0286,-0.0364,-0.039,-0.0435,-0.0492,-0.052,-0.0578,-0.0635,-0.0681,-0.0699,-0.0749,-0.0759,-0.0784,-0.0755,-0.0746,-0.0738,-0.0713,-0.0736,-0.0727,-0.0826,-0.0826,-0.0826,0,0,-0.0192,-0.0217,-0.0218,-0.0257,-0.03,-0.0314,-0.0383,-0.0408,-0.042,-0.0519,-0.0547,-0.0608,-0.0678,-0.0703,-0.0714,-0.0731,-0.0724,-0.0736,-0.0729,-0.0707,-0.0733,-0.0723,-0.0715,-0.0824,-0.0825,-0.0825,0,0,-0.0145,-0.0163,-0.0152,-0.0179,-0.0222,-0.0267,-0.0262,-0.0337,-0.0369,-0.04,-0.0477,-0.0515,-0.0586,-0.0633,-0.0665,-0.0632,-0.0683,-0.065,-0.0569,-0.0592,-0.0583,-0.0576,-0.0594,-0.0589,-0.064,-0.064,-0.0639,0,-0.0118,-0.0113,-0.0155,-0.0152,-0.0164,-0.0233,-0.0226,-0.0265,-0.034,-0.0353,-0.0388,-0.049,-0.0549,-0.0577,-0.0572,-0.061,-0.0632,-0.0603,-0.0579,-0.0573,-0.0567,-0.0587,-0.0583,-0.0635,-0.0635,-0.0636,-0.0636,0,-0.0073,-0.0068,-0.0059,-0.0076,-0.009,-0.0094,-0.0142,-0.0159,-0.0198,-0.0244,-0.0278,-0.0365,-0.0423,-0.0449,-0.0502,-0.0495,-0.0525,-0.057,-0.06,-0.0551,-0.0575,-0.0573,-0.0627,-0.0629,-0.0631,-0.0632,0,0,-0.0023,-0.0028,-0.0026,-0.0019,-0.0051,-0.0057,-0.0054,-0.0079,-0.0076,-0.0137,-0.0142,-0.0219,-0.0268,-0.0305,-0.0379,-0.0393,-0.0383,-0.0452,-0.0456,-0.046,-0.0426,-0.045,-0.0451,-0.0426,-0.0425,-0.0425,-0.0458,0,0.0017,0.0048,0.0032,0.0063,0.0074,0.0033,0.004,0.0016,-0.0018,-0.0037,-0.0106,-0.0145,-0.0213,-0.0244,-0.0265,-0.0366,-0.0372,-0.0369,-0.0481,-0.0483,-0.0503,-0.0447,-0.0459,-0.0489,-0.0456,-0.0456,-0.0456,0,0.0058,0.0075,0.0114,0.0132,0.0134,0.0143,0.0148,0.0142,0.0107,0.008,0.0044,-0.0021,-0.0062,-0.0128,-0.0223,-0.022,-0.0296,-0.0364,-0.0368,-0.0418,-0.0502,-0.0535,-0.0487,-0.0657,-0.0453,-0.0453,-0.0453,0,0.011,0.0134,0.0172,0.0175,0.0182,0.0197,0.0195,0.0176,0.0187,0.015,0.0154,0.0084,0.0044,-0.0045,-0.0182,-0.0202,-0.0284,-0.0342,-0.0425,-0.0429,-0.0472,-0.048,-0.059,-0.0379,-0.0379,-0.0378,-0.0378,0,0.0157,0.0187,0.0199,0.0218,0.0267,0.0249,0.0291,0.0275,0.0271,0.0298,0.0215,0.0222,0.0066,-0.0008,-0.0134,-0.0264,-0.0249,-0.0385,-0.0429,-0.0438,-0.0443,-0.0621,-0.0724,-0.038,-0.0379,-0.0379,-0.0379,0,0.0206,0.0211,0.0257,0.0279,0.0291,0.0322,0.0357,0.0386,0.0368,0.0402,0.0398,0.0329,0.0229,0.0076,-0.0083,-0.0202,-0.0436,-0.0383,-0.0378,-0.0421,-0.0656,-0.0752,-0.0907,-0.0988,-0.047,-0.0471,-0.0472,0,0.0232,0.0262,0.0308,0.0341,0.0352,0.0395,0.043,0.043,0.047,0.0473,0.0502,0.0422,0.0381,0.0142,-0.0087,-0.0294,-0.0461,-0.0444,-0.0481,-0.0644,-0.0785,-0.0864,-0.0927,-0.0504,-0.0505,-0.0505,-0.0506,0,0.0286,0.0301,0.0341,0.041,0.0455,0.0511,0.0561,0.0612,0.062,0.0651,0.0676,0.0645,0.0415,0.0201,-0.0093,-0.0256,-0.0582,-0.0463,-0.0638,-0.0808,-0.0895,-0.1003,-0.051,-0.0511,-0.0511,-0.051,-0.051,-0.051,0.0326,0.0365,0.0419,0.0489,0.0544,0.0617,0.0675,0.0737,0.0808,0.0859,0.0817,0.079,0.0459,0.0057,-0.0181,-0.0632,-0.0634,-0.0767,-0.0865,-0.0925,-0.1017,-0.0523,-0.0576,-0.0575,-0.0575,-0.0575,-0.0575,0,0.0378,0.0424,0.0495,0.0575,0.0647,0.0661,0.0761,0.0819,0.0913,0.0951,0.0967,0.077,0.0373,-0.0046,-0.0634,-0.0959,-0.1097,-0.1157,-0.1282,-0.1323,-0.0886,-0.09,-0.1019,-0.1018,-0.1018,-0.1018,-0.1018,-0.1018,0.0405,0.0485,0.0525,0.0652,0.0708,0.0802,0.0861,0.0938,0.0989,0.1011,0.0975,0.0918,0.0539,-0.0475,-0.1212,-0.1382,-0.1632,-0.169,-0.1809,-0.1529,-0.1501,-0.1473,-0.151,-0.1755,-0.1756,-0.2206,-0.221,-0.2214]}],[{"header":{"parameterUnit":"m.s-1","parameterCategory":2,"la1":30.2991,"la2":30.254,"lo1":-89.0895,"lo2":-89.0444,"dy":0.0017,"dx":0.0017,"nx":28,"ny":28,"refTime":"2025-01-07T09:00:00:Z","depth":"2","parameterNumber":2,"parameterNumberName":"U-component_of_CURRENTS"},"data":[0,0,0,0,0,0,0,0,0,0,0,0,0,0,0,0,0,0,0,0,0,0,0,0,0,0,0,0,0,0,0,0,0,0,0,0,0,0,0,0,0,0,0,0,0,0,0,0,0,0,0,0,0,0,0,0,0,0,0.2222,0.2222,0,0.2285,0.2286,0.2286,0.2323,0.2323,0.2323,0.2324,0.2362,0.2363,0.2363,0,0,0,0,0,0,0,0,0,0,0,0,0,0.2173,0.2173,0.2222,0.2222,0.2223,0.2285,0.2286,0.2286,0.2323,0.2323,0.2323,0.2324,0.2362,0.2362,0.2363,0,0,0,0,0,0,0,0,0,0,0,0,0,0.221,0.2174,0.2221,0.225,0.2253,0.2285,0.2286,0.2287,0.2323,0.2323,0.2324,0.2324,0.2361,0.2362,0.2363,0.2363,0,0,0.2367,0.2368,0,0,0,0,0,0,0,0,0.2208,0.2211,0.2245,0.2248,0.2252,0.2298,0.2283,0.2311,0.2323,0.2295,0.2324,0.2324,0.2338,0.2342,0.2351,0.2365,0.2366,0.2367,0.2368,0.2368,0.2369,0,0,0,0,0,0,0,0.2205,0.2209,0.2245,0.2246,0.225,0.2274,0.2279,0.2288,0.2312,0.2297,0.2301,0.231,0.234,0.235,0.2352,0.2367,0.2367,0.2368,0.2369,0.2369,0.2421,0.2422,0,0,0,0,0,0,0.2197,0.2206,0.2243,0.2247,0.2232,0.2274,0.228,0.2281,0.2313,0.2319,0.2309,0.2311,0.2348,0.2351,0.2354,0.2397,0.2368,0.2369,0.237,0.242,0.2421,0.2422,0,0,0,0,0,0,0.2196,0.2199,0.2241,0.223,0.2237,0.2274,0.2276,0.2282,0.23,0.2322,0.2327,0.2321,0.2348,0.2352,0.2366,0.2397,0.237,0.2371,0.2419,0.242,0.2421,0.2456,0,0,0,0,0,0,0.2194,0.2198,0.2199,0.2229,0.2237,0.2264,0.2276,0.2283,0.2305,0.2309,0.2334,0.2338,0.2349,0.2365,0.2367,0.2398,0.2372,0.2419,0.242,0.2421,0.2454,0.2458,0.2461,0,0,0,0,0,0.2192,0.2184,0.2198,0.2203,0.2236,0.2265,0.2271,0.2299,0.2306,0.2315,0.2329,0.2337,0.2375,0.2365,0.2369,0.2401,0.2418,0.242,0.2421,0.2452,0.2457,0.2461,0,0,0,0,0,0,0.2153,0.2188,0.2204,0.2205,0.2238,0.2272,0.2281,0.23,0.2319,0.2323,0.2338,0.2343,0.2373,0.2373,0.2362,0.2418,0.2401,0.2403,0.2424,0.2428,0.2432,0.2398,0.2373,0,0,0,0,0,0.2147,0.2154,0.2195,0.2195,0.2213,0.2249,0.2264,0.2286,0.2308,0.2318,0.2336,0.2355,0.2381,0.2392,0.241,0.2431,0.2425,0.2455,0.2459,0.2462,0.2437,0.2456,0.2459,0.2427,0.2427,0.2427,0,0,0.2129,0.2151,0.2154,0.2189,0.2215,0.2238,0.2259,0.2285,0.2303,0.2317,0.2341,0.2368,0.2389,0.2422,0.2435,0.2426,0.2473,0.2464,0.2467,0.2439,0.2458,0.2461,0.2464,0.2428,0.2428,0.2427,0,0,0.2107,0.2122,0.2131,0.2158,0.2204,0.223,0.2238,0.2281,0.2302,0.2326,0.2352,0.2385,0.2414,0.2442,0.2458,0.2487,0.2493,0.2507,0.2499,0.252,0.2522,0.2524,0.2541,0.2544,0.2508,0.2508,0.2508,0,0.2092,0.2107,0.2137,0.2158,0.2183,0.2224,0.2247,0.2269,0.231,0.2331,0.2334,0.2398,0.242,0.2467,0.2481,0.2496,0.2503,0.2485,0.2524,0.2526,0.2528,0.2544,0.2547,0.251,0.251,0.251,0.251,0,0.2086,0.2102,0.2109,0.2151,0.2177,0.2203,0.2246,0.2273,0.2302,0.2329,0.2379,0.241,0.2447,0.2476,0.2483,0.2522,0.2524,0.253,0.2512,0.2533,0.2549,0.2551,0.2513,0.2512,0.2512,0.2511,0,0,0.2053,0.21,0.2104,0.2129,0.2183,0.2204,0.2236,0.2287,0.2314,0.2349,0.2386,0.2434,0.2456,0.2472,0.2507,0.252,0.2552,0.2525,0.2525,0.2538,0.2596,0.2608,0.2612,0.2571,0.2571,0.2571,0.2611,0,0.2054,0.2084,0.2111,0.2142,0.217,0.2216,0.2241,0.2286,0.2328,0.2368,0.2409,0.2453,0.2455,0.2489,0.2501,0.2549,0.2556,0.254,0.2574,0.2575,0.2581,0.2614,0.2407,0.2425,0.2613,0.2613,0.2614,0,0.2052,0.2076,0.2105,0.2157,0.2173,0.2191,0.2256,0.2285,0.2345,0.238,0.2422,0.2457,0.2501,0.2493,0.2546,0.2539,0.2553,0.2573,0.2576,0.2566,0.259,0.243,0.2422,0.2617,0.2617,0.2617,0.2616,0,0.2027,0.2075,0.21,0.2116,0.2173,0.2195,0.2227,0.2286,0.233,0.2389,0.2434,0.2474,0.2522,0.2532,0.2582,0.2566,0.2632,0.2624,0.2639,0.264,0.2456,0.2441,0.2629,0.2629,0.2629,0.2629,0.2629,0,0.2023,0.2041,0.2087,0.2098,0.2129,0.2174,0.2214,0.2257,0.2331,0.2379,0.2434,0.2488,0.2533,0.2587,0.2593,0.2637,0.2646,0.2631,0.265,0.2466,0.2453,0.2604,0.2601,0.263,0.263,0.263,0.263,0,0.1988,0.202,0.2048,0.2101,0.2116,0.2134,0.2207,0.2241,0.2317,0.2385,0.241,0.2519,0.2587,0.2634,0.2681,0.2676,0.2701,0.2707,0.2493,0.2487,0.2684,0.2682,0.2714,0.2714,0.2715,0.2716,0.2716,0,0.1973,0.1984,0.2033,0.2044,0.2065,0.2101,0.2128,0.2215,0.2262,0.2398,0.2433,0.2543,0.2605,0.2701,0.27,0.2719,0.274,0.2539,0.2465,0.2676,0.2693,0.2689,0.2687,0.2235,0.2231,0.2228,0.2226,0,0.1941,0.1957,0.1974,0.2,0.2024,0.2053,0.2104,0.2147,0.2248,0.2325,0.2424,0.2491,0.2599,0.2545,0.2603,0.2578,0.252,0.2485,0.275,0.2267,0.2234,0.2248,0.2258,0.22,0.2203,0.2205,0.2206,0.2207,0.1908,0.1906,0.1926,0.1948,0.1972,0.199,0.1992,0.2059,0.2126,0.2197,0.2324,0.2344,0.239,0.238,0.233,0.2289,0.2455,0.2324,0.2328,0.2336,0.2295,0.2267,0.2231,0.2233,0.2236,0.2238,0.224,0,0.1852,0.1859,0.1875,0.1886,0.1877,0.192,0.1962,0.1938,0.1969,0.2051,0.211,0.1981,0.1986,0.2018,0.1932,0.1971,0.19,0.1879,0.1746,0.1776,0.1801,0.1727,0.1515,0.1512,0.151,0.1508,0,0,0.182,0.18,0.1808,0.1777,0.1789,0.1743,0.1746,0.173,0.1754,0.1733,0.1727,0.1873,0.1968,0.17,0.1694,0.1581,0.1652,0.1523,0.2111,0.1984,0.2005,0.2078,0.2003,0,0,0,0,0]},{"header":{"parameterUnit":"m.s-1","parameterCategory":2,"la1":30.2991,"la2":30.254,"lo1":-89.0895,"lo2":-89.0444,"dy":0.0017,"dx":0.0017,"nx":28,"ny":28,"refTime":"2025-01-07T09:00:00:Z","depth":"2","parameterNumber":3,"parameterNumberName":"V-component_of_CURRENTS"},"data":[0,0,0,0,0,0,0,0,0,0,0,0,0,0,0,0,0,0,0,0,0,0,0,0,0,0,0,0,0,0,0,0,0,0,0,0,0,0,0,0,0,0,0,0,0,0,0,0,0,0,0,0,0,0,0,0,0,0,-0.0157,-0.0158,0,-0.0292,-0.0294,-0.0296,-0.0409,-0.041,-0.0411,-0.0411,-0.054,-0.0543,-0.0545,0,0,0,0,0,0,0,0,0,0,0,0,0,-0.0091,-0.0092,-0.0157,-0.0158,-0.016,-0.0292,-0.0294,-0.0297,-0.0409,-0.041,-0.0411,-0.0412,-0.0539,-0.0542,-0.0546,0,0,0,0,0,0,0,0,0,0,0,0,0,-0.0167,-0.0092,-0.0157,-0.0228,-0.0236,-0.0292,-0.0294,-0.0297,-0.0409,-0.041,-0.0411,-0.0412,-0.0538,-0.0542,-0.0546,-0.0548,0,0,-0.0558,-0.056,0,0,0,0,0,0,0,0,-0.0162,-0.017,-0.0216,-0.0223,-0.0232,-0.0331,-0.0318,-0.0379,-0.0408,-0.0348,-0.0411,-0.0413,-0.0466,-0.0476,-0.0505,-0.0554,-0.0559,-0.0559,-0.0561,-0.0563,-0.0564,0,0,0,0,0,0,0,-0.0157,-0.0165,-0.0215,-0.0217,-0.0227,-0.0286,-0.0297,-0.0331,-0.0402,-0.0353,-0.0361,-0.0368,-0.0471,-0.0501,-0.0509,-0.0561,-0.0559,-0.0562,-0.0565,-0.0566,-0.0628,-0.0627,0,0,0,0,0,0,-0.0124,-0.0159,-0.0211,-0.0219,-0.0194,-0.0285,-0.0299,-0.0302,-0.0402,-0.0417,-0.0367,-0.0372,-0.0494,-0.0504,-0.0514,-0.0526,-0.0563,-0.0567,-0.0569,-0.0628,-0.0628,-0.0627,0,0,0,0,0,0,-0.0122,-0.0127,-0.0206,-0.0189,-0.0203,-0.0284,-0.0287,-0.0304,-0.0338,-0.0411,-0.0428,-0.0384,-0.0495,-0.0508,-0.0532,-0.0531,-0.0569,-0.0572,-0.0629,-0.0628,-0.0627,-0.0546,0,0,0,0,0,0,-0.012,-0.0126,-0.0123,-0.0186,-0.0202,-0.023,-0.0286,-0.0305,-0.0338,-0.0348,-0.0431,-0.0445,-0.0497,-0.0525,-0.0536,-0.0538,-0.0575,-0.063,-0.0629,-0.0627,-0.055,-0.0542,-0.0536,0,0,0,0,0,-0.0117,-0.0103,-0.0122,-0.0129,-0.0193,-0.0229,-0.0243,-0.0309,-0.0337,-0.0346,-0.0394,-0.0442,-0.0524,-0.0527,-0.054,-0.0543,-0.0631,-0.0629,-0.0628,-0.0553,-0.0544,-0.0536,0,0,0,0,0,0,-0.0076,-0.0115,-0.0137,-0.0137,-0.0175,-0.0246,-0.0259,-0.0299,-0.0347,-0.0355,-0.0427,-0.0443,-0.0472,-0.0507,-0.0508,-0.0555,-0.0588,-0.0588,-0.0527,-0.0519,-0.0512,-0.047,-0.0579,0,0,0,0,0,-0.006,-0.006,-0.0109,-0.0107,-0.0121,-0.0187,-0.0212,-0.0252,-0.0299,-0.0323,-0.0378,-0.043,-0.0473,-0.0493,-0.054,-0.0552,-0.0574,-0.0563,-0.0556,-0.055,-0.0523,-0.0549,-0.0541,-0.0621,-0.0621,-0.0621,0,0,-0.0044,-0.0063,-0.0065,-0.0098,-0.0134,-0.0145,-0.0206,-0.0232,-0.0242,-0.0325,-0.0353,-0.041,-0.0472,-0.0498,-0.0514,-0.0526,-0.054,-0.0547,-0.0542,-0.0518,-0.0546,-0.0538,-0.0531,-0.062,-0.062,-0.062,0,0,-0.0006,-0.0024,-0.0015,-0.0038,-0.0076,-0.0111,-0.0111,-0.0175,-0.0205,-0.023,-0.0298,-0.0336,-0.0404,-0.0445,-0.0474,-0.0448,-0.0507,-0.0478,-0.0405,-0.043,-0.0423,-0.0418,-0.0439,-0.0436,-0.0468,-0.0468,-0.0468,0,0.0012,0.0018,-0.0018,-0.0016,-0.0025,-0.0086,-0.008,-0.0114,-0.0177,-0.0189,-0.0223,-0.0317,-0.0373,-0.0399,-0.0397,-0.0432,-0.0455,-0.0434,-0.042,-0.0415,-0.041,-0.0434,-0.0431,-0.0464,-0.0464,-0.0465,-0.0465,0,0.005,0.0054,0.0061,0.0048,0.0036,0.0033,-0.0007,-0.0025,-0.0064,-0.0103,-0.014,-0.0214,-0.0266,-0.0299,-0.034,-0.0344,-0.0374,-0.0414,-0.0438,-0.0397,-0.0425,-0.0424,-0.0458,-0.046,-0.0461,-0.0462,0,0,0.0089,0.0087,0.0088,0.0097,0.0069,0.0066,0.0067,0.0046,0.0047,-0.0012,-0.0018,-0.009,-0.0137,-0.017,-0.0238,-0.0254,-0.0254,-0.031,-0.0313,-0.0323,-0.0307,-0.033,-0.0332,-0.0297,-0.0297,-0.0296,-0.0339,0,0.0124,0.0154,0.014,0.0169,0.0181,0.0145,0.0151,0.013,0.0097,0.0077,0.0013,-0.0025,-0.0087,-0.0118,-0.0141,-0.0236,-0.0247,-0.0238,-0.0349,-0.0352,-0.0372,-0.033,-0.0307,-0.0343,-0.0339,-0.0339,-0.0339,0,0.016,0.0177,0.0213,0.0233,0.0235,0.0243,0.0248,0.0243,0.0209,0.0182,0.0146,0.0085,0.0044,-0.0016,-0.0112,-0.0108,-0.0183,-0.0248,-0.0253,-0.0295,-0.0372,-0.0383,-0.0342,-0.0337,-0.0338,-0.0338,-0.0338,0,0.0206,0.023,0.0266,0.027,0.0279,0.0291,0.029,0.0272,0.0283,0.0245,0.0247,0.0178,0.0139,0.005,-0.0081,-0.0099,-0.0186,-0.0238,-0.0322,-0.0325,-0.0334,-0.0339,-0.0279,-0.0279,-0.0279,-0.0279,-0.0279,0,0.0249,0.0278,0.029,0.0308,0.0354,0.0338,0.0377,0.0361,0.0356,0.0382,0.0302,0.0306,0.0156,0.0081,-0.004,-0.017,-0.0157,-0.0285,-0.0329,-0.0307,-0.0309,-0.0329,-0.0334,-0.0281,-0.028,-0.028,-0.028,0,0.0293,0.0298,0.0342,0.0365,0.0376,0.0404,0.0439,0.0466,0.0448,0.0478,0.0474,0.0405,0.0303,0.0155,-0.0003,-0.0117,-0.0246,-0.0296,-0.0256,-0.0293,-0.0377,-0.0378,-0.0385,-0.0386,-0.0387,-0.0387,-0.0388,0,0.0317,0.0345,0.0389,0.0421,0.0432,0.0472,0.0505,0.0506,0.0545,0.0545,0.0572,0.0488,0.0444,0.0207,-0.0011,-0.0213,-0.0246,-0.0329,-0.0354,-0.0342,-0.0384,-0.0383,-0.0383,-0.034,-0.034,-0.034,-0.034,0,0.0367,0.038,0.0419,0.0485,0.0527,0.0582,0.0629,0.0678,0.0687,0.0714,0.0732,0.0697,0.0474,0.027,-0.0016,-0.0158,-0.0297,-0.0338,-0.0331,-0.0317,-0.0303,-0.0344,-0.0344,-0.0341,-0.0341,-0.0341,-0.0341,-0.0341,0.0403,0.044,0.0492,0.0558,0.061,0.0681,0.0737,0.0794,0.0859,0.0898,0.0855,0.08,0.0572,0.0208,-0.0038,-0.0305,-0.0299,-0.039,-0.0388,-0.0387,-0.0374,-0.0362,-0.0409,-0.0409,-0.0409,-0.0409,-0.041,0,0.0451,0.0494,0.0561,0.0638,0.0707,0.0722,0.0818,0.0871,0.0954,0.0969,0.0971,0.0767,0.0528,0.0259,-0.0129,-0.0357,-0.0376,-0.0434,-0.04,-0.0397,-0.0395,-0.0382,-0.042,-0.042,-0.0421,-0.0422,0,0,0.0476,0.0552,0.059,0.0709,0.0763,0.0854,0.0911,0.0983,0.1016,0.104,0.1003,0.0922,0.0604,0.033,0.002,-0.0203,-0.0254,-0.0253,-0.0221,-0.0143,-0.0138,-0.0346,-0.032,0,0,0,0,0]}],[{"header":{"parameterUnit":"m.s-1","parameterCategory":2,"la1":30.2991,"la2":30.254,"lo1":-89.0895,"lo2":-89.0444,"dy":0.0017,"dx":0.0017,"nx":28,"ny":28,"refTime":"2025-01-07T09:00:00:Z","depth":"4","parameterNumber":2,"parameterNumberName":"U-component_of_CURRENTS"},"data":[0,0,0,0,0,0,0,0,0,0,0,0,0,0,0,0,0,0,0,0,0,0,0,0,0,0,0,0,0,0,0,0,0,0,0,0,0,0,0,0,0,0,0,0,0,0,0,0,0,0,0,0,0,0,0,0,0,0,0.1321,0.1321,0,0.1325,0.1325,0.1325,0.1331,0.1331,0.1331,0.1332,0.1421,0.1423,0.1425,0,0,0,0,0,0,0,0,0,0,0,0,0,0.1241,0.1243,0.1321,0.1321,0.1321,0.1325,0.1325,0.1325,0.1331,0.1331,0.1331,0.1332,0.142,0.1422,0.1425,0,0,0,0,0,0,0,0,0,0,0,0,0,0.1261,0.1244,0.1321,0.1327,0.1328,0.1325,0.1325,0.1325,0.1331,0.1331,0.1332,0.1332,0.1419,0.1422,0.1425,0.1433,0,0,0.1435,0.1436,0,0,0,0,0,0,0,0,0.126,0.1264,0.1326,0.1326,0.1327,0.133,0.133,0.1366,0.133,0.1326,0.1332,0.1332,0.14,0.1404,0.1399,0.1438,0.1441,0.1435,0.1437,0.1438,0.1439,0,0,0,0,0,0,0,0.1259,0.1263,0.132,0.1326,0.1327,0.1304,0.1307,0.1336,0.1359,0.1327,0.1328,0.1333,0.1401,0.1396,0.1401,0.1443,0.1435,0.1437,0.1439,0.1441,0.1572,0.1573,0,0,0,0,0,0,0.1268,0.1263,0.132,0.132,0.1298,0.1305,0.1309,0.1327,0.1357,0.1363,0.1332,0.1333,0.139,0.1398,0.1405,0.1487,0.1438,0.1441,0.1443,0.157,0.1572,0.1574,0,0,0,0,0,0,0.1266,0.1274,0.1319,0.1293,0.1297,0.1307,0.1326,0.1326,0.135,0.1361,0.1368,0.1359,0.1391,0.14,0.1454,0.1488,0.1442,0.1445,0.1568,0.1571,0.1573,0.1608,0,0,0,0,0,0,0.1264,0.1273,0.1301,0.1294,0.1299,0.1339,0.1326,0.1326,0.1352,0.1354,0.1386,0.1393,0.1392,0.145,0.1457,0.1492,0.1447,0.1566,0.1569,0.1572,0.1604,0.1611,0.1617,0,0,0,0,0,0.1262,0.1288,0.1302,0.131,0.1334,0.1341,0.1342,0.1346,0.1354,0.1369,0.1392,0.1393,0.1475,0.1453,0.1462,0.1498,0.1564,0.1568,0.1572,0.1602,0.161,0.1616,0,0,0,0,0,0,0.1263,0.1292,0.1306,0.1341,0.1354,0.1343,0.1362,0.1365,0.1393,0.1408,0.1414,0.1422,0.148,0.1489,0.1465,0.1546,0.1521,0.1526,0.1541,0.1548,0.1554,0.1572,0.145,0,0,0,0,0,0.128,0.1315,0.1327,0.1359,0.137,0.1374,0.1383,0.139,0.1406,0.1418,0.1443,0.1472,0.1496,0.1523,0.1545,0.1595,0.1602,0.1625,0.1631,0.1636,0.1658,0.1687,0.1697,0.1586,0.1586,0.1586,0,0,0.1289,0.1311,0.1332,0.1364,0.1375,0.1393,0.1381,0.1408,0.1431,0.1427,0.1482,0.1498,0.1514,0.156,0.1588,0.1577,0.167,0.1641,0.1645,0.1664,0.1692,0.1702,0.1712,0.1588,0.1588,0.1588,0,0,0.1306,0.1348,0.1375,0.1393,0.1424,0.1428,0.1445,0.1462,0.1482,0.1529,0.1529,0.157,0.1615,0.1628,0.1639,0.1699,0.1698,0.171,0.1762,0.179,0.1799,0.1807,0.182,0.1829,0.1718,0.1718,0.1718,0,0.1315,0.1356,0.1382,0.1407,0.1429,0.145,0.1474,0.1494,0.153,0.1557,0.1561,0.1632,0.1646,0.1693,0.1713,0.1714,0.1725,0.1727,0.1797,0.1805,0.1813,0.1824,0.1834,0.172,0.172,0.1719,0.1719,0,0.134,0.1383,0.14,0.1447,0.1473,0.1502,0.1532,0.1573,0.1607,0.1626,0.1695,0.1713,0.1755,0.1764,0.176,0.1825,0.1813,0.1794,0.1774,0.1826,0.1834,0.1844,0.1723,0.1722,0.1721,0.1721,0,0,0.1324,0.1402,0.1411,0.1443,0.1501,0.1518,0.1578,0.1627,0.1667,0.1721,0.1772,0.1821,0.1841,0.1856,0.1857,0.189,0.1946,0.1877,0.1878,0.1883,0.2006,0.1887,0.1885,0.194,0.1942,0.1944,0.1985,0,0.1334,0.1389,0.143,0.1488,0.1517,0.1569,0.1616,0.1671,0.172,0.1778,0.182,0.1869,0.187,0.1896,0.1932,0.1942,0.1976,0.1937,0.1962,0.1963,0.1845,0.1894,0.1951,0.1991,0.1994,0.1995,0.1996,0,0.1336,0.1378,0.1436,0.1515,0.1533,0.1576,0.1662,0.1707,0.1791,0.1831,0.1899,0.1927,0.1997,0.198,0.2049,0.2026,0.2034,0.2037,0.2037,0.1926,0.1862,0.1933,0.2013,0.2012,0.201,0.2009,0.2008,0,0.1298,0.1379,0.1431,0.1458,0.1547,0.1594,0.1647,0.1731,0.1781,0.1872,0.1922,0.1993,0.2041,0.2073,0.2099,0.2081,0.216,0.2122,0.2024,0.2015,0.2092,0.2083,0.2177,0.2177,0.2176,0.2176,0.2176,0,0.128,0.1323,0.1424,0.145,0.1515,0.1585,0.166,0.1721,0.1816,0.187,0.1952,0.1999,0.2073,0.2122,0.2127,0.2108,0.2183,0.2049,0.2025,0.2104,0.2096,0.2098,0.2088,0.2178,0.2178,0.2177,0.2177,0,0.1226,0.1294,0.1357,0.1463,0.15,0.1547,0.1666,0.1713,0.1814,0.1889,0.1926,0.2033,0.2084,0.2138,0.2184,0.2131,0.2124,0.2098,0.2191,0.2168,0.1952,0.1944,0.1981,0.1978,0.1974,0.1972,0.197,0,0.1201,0.1232,0.1353,0.1391,0.1446,0.1529,0.1581,0.1697,0.1745,0.1887,0.1911,0.2012,0.2063,0.2034,0.2098,0.2098,0.2076,0.2058,0.2001,0.1963,0.1936,0.1933,0.1929,0.1965,0.1964,0.1963,0.1962,0,0.1149,0.1208,0.126,0.134,0.1407,0.1467,0.1553,0.158,0.1701,0.1814,0.1843,0.1869,0.1926,0.195,0.1974,0.1969,0.2058,0.2025,0.203,0.1976,0.1944,0.1919,0.1919,0.1951,0.1953,0.1954,0.1955,0,0.1113,0.1135,0.1212,0.1272,0.135,0.138,0.1435,0.1488,0.1548,0.1698,0.1702,0.1801,0.1898,0.1885,0.1904,0.1895,0.186,0.1791,0.1808,0.1821,0.1751,0.1685,0.1605,0,0,0,0,0,0.1065,0.1084,0.1136,0.1193,0.1266,0.1308,0.1404,0.146,0.1578,0.1553,0.1622,0.1658,0.1684,0.1742,0.1699,0.1844,0.1876,0.1788,0.1807,0.1891,0.1904,0.1837,0,0,0,0,0,0,0.1032,0.1079,0.1104,0.1115,0.1138,0.12,0.1254,0.1333,0.1325,0.1447,0.1468,0.1562,0.1613,0.1687,0.1667,0.1686,0.1665,0.1857,0.1853,0.1884,0.1896,0.1906,0.1841,0,0,0,0,0]},{"header":{"parameterUnit":"m.s-1","parameterCategory":2,"la1":30.2991,"la2":30.254,"lo1":-89.0895,"lo2":-89.0444,"dy":0.0017,"dx":0.0017,"nx":28,"ny":28,"refTime":"2025-01-07T09:00:00:Z","depth":"4","parameterNumber":3,"parameterNumberName":"V-component_of_CURRENTS"},"data":[0,0,0,0,0,0,0,0,0,0,0,0,0,0,0,0,0,0,0,0,0,0,0,0,0,0,0,0,0,0,0,0,0,0,0,0,0,0,0,0,0,0,0,0,0,0,0,0,0,0,0,0,0,0,0,0,0,0,0.0223,0.0223,0,0.0235,0.0235,0.0235,0.0267,0.0268,0.0269,0.0269,0.027,0.0269,0.0269,0,0,0,0,0,0,0,0,0,0,0,0,0,0.0228,0.0228,0.0223,0.0223,0.0223,0.0235,0.0235,0.0235,0.0267,0.0268,0.0269,0.0269,0.027,0.0269,0.0269,0,0,0,0,0,0,0,0,0,0,0,0,0,0.0232,0.0228,0.0223,0.024,0.0242,0.0235,0.0235,0.0235,0.0267,0.0268,0.0269,0.027,0.027,0.0269,0.0268,0.0245,0,0,0.0266,0.0266,0,0,0,0,0,0,0,0,0.0232,0.0232,0.0237,0.0239,0.0241,0.025,0.0237,0.0238,0.0267,0.0258,0.0269,0.027,0.0261,0.0261,0.0262,0.0245,0.0245,0.0266,0.0265,0.0265,0.0265,0,0,0,0,0,0,0,0.0232,0.0232,0.0229,0.0237,0.0239,0.0247,0.0249,0.0237,0.0255,0.0259,0.0261,0.0261,0.0262,0.0263,0.0262,0.0245,0.0266,0.0265,0.0265,0.0264,0.0223,0.0222,0,0,0,0,0,0,0.0228,0.0231,0.0228,0.0229,0.0238,0.0246,0.0248,0.0247,0.0255,0.0257,0.026,0.0262,0.0264,0.0263,0.0263,0.0256,0.0265,0.0264,0.0264,0.0224,0.0223,0.0222,0,0,0,0,0,0,0.0228,0.0227,0.0228,0.023,0.0231,0.0245,0.0243,0.0246,0.0254,0.0256,0.0258,0.0265,0.0265,0.0264,0.0257,0.0256,0.0264,0.0263,0.0224,0.0223,0.0223,0.023,0,0,0,0,0,0,0.0228,0.0227,0.0225,0.023,0.023,0.0227,0.0242,0.0246,0.0251,0.0255,0.026,0.0261,0.0265,0.0259,0.0257,0.0255,0.0262,0.0225,0.0224,0.0223,0.0231,0.023,0.0229,0,0,0,0,0,0.0228,0.0225,0.0225,0.0225,0.0227,0.0227,0.0228,0.0242,0.0251,0.0252,0.0256,0.0261,0.025,0.0257,0.0255,0.0253,0.0226,0.0224,0.0223,0.0231,0.023,0.0229,0,0,0,0,0,0,0.0228,0.0228,0.0228,0.0226,0.0226,0.0233,0.0235,0.024,0.0244,0.0249,0.0253,0.0254,0.025,0.0243,0.0251,0.0236,0.0238,0.0236,0.0245,0.0244,0.0243,0.0235,0.0262,0,0,0,0,0,0.0224,0.0223,0.0222,0.022,0.022,0.0225,0.0227,0.0235,0.0238,0.0242,0.0242,0.024,0.024,0.0237,0.0234,0.022,0.02,0.0216,0.0215,0.0215,0.0205,0.017,0.0165,0.0218,0.0218,0.0218,0,0,0.0224,0.0223,0.0223,0.022,0.0222,0.0225,0.0229,0.0233,0.0237,0.0239,0.0241,0.0238,0.0236,0.023,0.0226,0.0226,0.0189,0.0213,0.0213,0.0203,0.0168,0.0163,0.0158,0.0217,0.0217,0.0217,0,0,0.0228,0.022,0.0225,0.0223,0.0224,0.0225,0.0226,0.0227,0.0231,0.0226,0.0233,0.0222,0.0218,0.0215,0.0214,0.0199,0.0188,0.0202,0.0189,0.0155,0.0151,0.0146,0.0117,0.011,0.0199,0.0199,0.0199,0,0.0231,0.0235,0.0226,0.0229,0.0234,0.0226,0.0236,0.023,0.023,0.0229,0.0228,0.0213,0.0209,0.0202,0.0199,0.0197,0.0178,0.0198,0.0154,0.0149,0.0145,0.0116,0.0108,0.0199,0.0199,0.0199,0.0199,0,0.0241,0.0244,0.0245,0.0248,0.0248,0.0253,0.0246,0.024,0.0237,0.0233,0.0221,0.0204,0.0198,0.0192,0.0191,0.0161,0.0159,0.0161,0.0159,0.014,0.0111,0.0103,0.0199,0.0199,0.0199,0.0199,0,0,0.0253,0.0255,0.0256,0.0268,0.0262,0.0268,0.0262,0.026,0.0264,0.0237,0.0236,0.021,0.0196,0.0191,0.0183,0.0143,0.0094,0.0136,0.0134,0.0111,0.002,0.0025,0.0017,0.0092,0.009,0.0089,0.0015,0,0.027,0.0287,0.0282,0.0301,0.0312,0.03,0.0299,0.0291,0.028,0.0269,0.0231,0.0228,0.0199,0.02,0.0152,0.012,0.0072,0.0114,0.0039,0.0036,0.0046,0.0007,0.0084,0.0008,0.0007,0.0005,0.0004,0,0.0286,0.0297,0.0322,0.0338,0.0342,0.0348,0.0353,0.035,0.0322,0.0312,0.0281,0.026,0.0208,0.0185,0.0087,0.0118,0.0061,0.002,0.0017,0.001,0.0025,0.0029,-0.0011,-0.001,-0.0009,-0.0008,-0.0007,0,0.031,0.0328,0.0354,0.0357,0.0367,0.0377,0.038,0.0365,0.0373,0.034,0.0342,0.0274,0.0254,0.0164,0.0079,0.0083,-0.0034,-0.0033,-0.0089,-0.0089,-0.0072,-0.0067,-0.0123,-0.0123,-0.0123,-0.0123,-0.0123,0,0.0332,0.0353,0.0369,0.0382,0.0414,0.0407,0.0434,0.0421,0.0414,0.0426,0.0369,0.0359,0.0245,0.0174,0.0082,-0.0027,-0.0033,-0.0107,-0.0115,-0.0066,-0.0059,-0.0078,-0.0071,-0.0126,-0.0125,-0.0124,-0.0124,0,0.0353,0.0362,0.0395,0.0416,0.0428,0.0448,0.0479,0.0493,0.048,0.0491,0.0486,0.0421,0.0324,0.0208,0.0068,-0.0008,-0.0118,-0.0157,-0.0097,-0.0097,-0.0154,-0.0146,-0.0234,-0.0234,-0.0235,-0.0235,-0.0236,0,0.0364,0.0384,0.0425,0.0449,0.0462,0.0495,0.0519,0.0523,0.0543,0.053,0.0537,0.0457,0.0398,0.0206,0.0073,-0.0109,-0.0135,-0.0193,-0.0191,-0.017,-0.0169,-0.016,-0.0152,-0.0237,-0.0237,-0.0237,-0.0237,0,0.0387,0.0404,0.0431,0.0482,0.0518,0.0558,0.0593,0.0615,0.0617,0.0615,0.0581,0.048,0.0369,0.0212,0.0071,-0.006,-0.0156,-0.0199,-0.0199,-0.0197,-0.0174,-0.0171,-0.0162,-0.0239,-0.0239,-0.0238,-0.0238,0,0.0405,0.0427,0.0466,0.051,0.0559,0.06,0.0618,0.0638,0.0654,0.0639,0.0626,0.0502,0.043,0.0237,0.0107,-0.0022,-0.0059,-0.0102,-0.0108,-0.0107,-0.005,-0.0001,-0.0032,0,0,0,0,0,0.0416,0.0442,0.0488,0.0535,0.0586,0.0613,0.0659,0.0672,0.0682,0.0666,0.0648,0.0543,0.0349,0.0264,0.0135,0.0086,-0.0088,-0.0071,-0.0141,-0.0249,-0.0247,-0.0201,0,0,0,0,0,0,0.0422,0.0466,0.0488,0.0548,0.0584,0.0638,0.0667,0.0675,0.0666,0.0658,0.0559,0.0511,0.0322,0.0424,0.0133,0.0093,0.003,-0.0161,-0.0164,-0.025,-0.0248,-0.0246,-0.0198,0,0,0,0,0]}]]